﻿"時刻","Lap","トップの周回","Laptime","時速","S1","S2"
12 - 純１朗・大西・梅１朗 - ショップ対抗
"10:37:00.444","2","2","53.473","49.368","31.568","21.905"
"10:37:53.318","3","3","52.874","49.928","31.195","21.679"
"10:38:46.163","4","4","52.845","49.955","31.166","21.679"
"10:39:38.735","5","5","52.572","50.215","30.866","21.706"
"10:40:31.254","6","6","52.519","50.265","31.027","21.492"
"10:41:23.855","7","7","52.601","50.187","31.033","21.568"
"10:42:16.236","8","8","52.381","50.398","30.932","21.449"
"10:43:08.808","9","9","52.572","50.215","31.062","21.510"
"10:44:01.019","10","10","52.211","50.562","30.662","21.549"
"10:44:53.637","11","11","52.618","50.171","31.100","21.518"
"10:45:46.440","12","12","52.803","49.995","31.112","21.691"
"10:46:38.575","13","13","52.135","50.635","30.739","21.396"
"10:47:30.813","14","14","52.238","50.536","30.808","21.430"
"10:48:23.259","15","15","52.446","50.335","30.748","21.698"
"10:49:16.085","16","16","52.826","49.973","31.444","21.382"
"10:50:08.635","17","17","52.550","50.236","30.930","21.620"
"10:51:00.918","18","18","52.283","50.492","30.919","21.364"
"10:51:53.819","19","19","52.901","49.902","31.009","21.892"
"10:52:49.012","20","20","55.193","47.830","32.599","22.594"
"10:53:42.286","21","21","53.274","49.553","30.888",""
"10:55:00.719","22","22","1:18.433","33.658","","22.417"
"10:55:54.970","23","23","54.251","48.660","","22.146"
"10:56:48.870","24","24","53.900","48.977","31.806","22.094"
"10:57:42.834","25","25","53.964","48.919","31.921","22.043"
"10:58:37.358","26","26","54.524","48.417","32.670","21.854"
"10:59:31.745","27","27","54.387","48.539","31.967","22.420"
"11:00:26.168","28","28","54.423","48.507","32.154","22.269"
"11:01:20.134","29","29","53.966","48.917","32.187","21.779"
"11:02:14.232","30","30","54.098","48.798","32.062","22.036"
"11:03:12.296","31","31","58.064","45.465","32.519",""
"11:04:41.383","32","32","1:29.087","29.633","","25.426"
"11:05:38.051","33","33","56.668","46.585","","23.220"
"11:06:34.301","34","34","56.250","46.931","33.074","23.176"
"11:07:30.378","35","35","56.077","47.076","32.995","23.082"
"11:08:27.447","36","36","57.069","46.258","33.651",""
"11:09:44.734","37","38","1:17.287","34.157","","21.342"
"11:10:36.627","38","39","51.893","50.872","","21.331"
"11:11:30.518","39","39","53.891","48.986","31.648","22.243"
"11:12:23.214","40","40","52.696","50.096","31.174","21.522"
"11:13:15.858","41","41","52.644","50.146","30.870","21.774"
"11:14:07.848","42","42","51.990","50.777","30.761","21.229"
"11:15:02.584","43","43","54.736","48.229","32.509","22.227"
"11:15:54.655","44","44","52.071","50.698","30.641","21.430"
"11:16:46.795","45","45","52.140","50.631","30.602","21.538"
"11:17:38.813","46","46","52.018","50.749","30.667","21.351"
"11:18:32.002","47","47","53.189","49.632","31.251","21.938"
"11:19:24.104","48","48","52.102","50.668","30.621","21.481"
"11:20:16.537","49","49","52.433","50.348","30.991","21.442"
"11:21:08.589","50","50","52.052","50.716","30.421","21.631"
"11:22:00.656","51","51","52.067","50.702","30.585","21.482"
"11:22:52.603","52","52","51.947","50.819","30.620","21.327"
"11:23:44.816","53","53","52.213","50.560","30.808","21.405"
"11:24:38.704","54","54","53.888","48.988","31.912","21.976"
"11:25:31.228","55","55","52.524","50.260","30.786",""
"11:26:45.957","56","56","1:14.729","35.326","","22.390"
"11:27:41.643","57","57","55.686","47.407","","23.314"
"11:28:35.920","58","58","54.277","48.637","32.131","22.146"
"11:29:30.178","59","59","54.258","48.654","31.932","22.326"
"11:30:24.177","60","60","53.999","48.888","31.823","22.176"
"11:31:18.403","61","61","54.226","48.683","32.019","22.207"
"11:32:13.255","62","62","54.852","48.127","32.714","22.138"
"11:33:07.491","63","63","54.236","48.674","32.035","22.201"
"11:34:02.272","64","64","54.781","48.190","32.367","22.414"
"11:34:56.577","65","65","54.305","48.612","32.117","22.188"
"11:35:51.792","66","66","55.215","47.811","32.841","22.374"
2 - 川西・辻本 - ショップ対抗
"10:36:55.814","2","2","52.382","50.397","31.179","21.203"
"10:37:47.982","3","3","52.168","50.603","31.055","21.113"
"10:38:40.352","4","4","52.370","50.408","31.156","21.214"
"10:39:33.284","5","5","52.932","49.873","30.989","21.943"
"10:40:25.951","6","6","52.667","50.124","31.433","21.234"
"10:41:48.151","7","7","1:22.200","32.115","",""
"10:42:43.634","8","8","55.483","47.580","","22.422"
"10:43:36.780","9","9","53.146","49.672","31.536","21.610"
"10:44:29.010","10","10","52.230","50.543","31.032","21.198"
"10:45:22.515","11","11","53.505","49.339","31.213","22.292"
"10:46:15.927","12","12","53.412","49.425","31.773",""
"10:47:31.905","13","14","1:15.978","34.745","","21.158"
"10:48:23.394","14","15","51.489","51.271","","21.042"
"10:49:17.819","15","16","54.425","48.505","31.505","22.920"
"10:50:10.341","16","17","52.522","50.262","31.011","21.511"
"10:51:02.115","17","18","51.774","50.989","30.828","20.946"
"10:51:54.268","18","19","52.153","50.618","30.471","21.682"
"10:52:49.554","19","20","55.286","47.750","32.213","23.073"
"10:53:42.517","20","21","52.963","49.844","30.927","22.036"
"10:54:35.819","21","21","53.302","49.527","31.835","21.467"
"10:55:27.803","22","22","51.984","50.783","30.836","21.148"
"10:56:19.985","23","23","52.182","50.590","30.511","21.671"
"10:57:11.314","24","24","51.329","51.431","30.272","21.057"
"10:58:02.881","25","25","51.567","51.193","30.517","21.050"
"10:58:54.591","26","26","51.710","51.052","30.714","20.996"
"10:59:46.292","27","27","51.701","51.061","30.752","20.949"
"11:00:39.098","28","28","52.806","49.992","30.647",""
"11:01:57.164","29","29","1:18.066","33.816","","21.008"
"11:02:48.935","30","30","51.771","50.991","","21.087"
"11:03:40.347","31","31","51.412","51.348","30.456","20.956"
"11:04:32.448","32","32","52.101","50.669","30.671","21.430"
"11:05:23.943","33","33","51.495","51.265","30.549","20.946"
"11:06:15.690","34","34","51.747","51.015","30.790","20.957"
"11:07:07.487","35","35","51.797","50.966","30.646","21.151"
"11:08:00.031","36","36","52.544","50.241","31.141","21.403"
"11:08:51.576","37","37","51.545","51.215","30.553","20.992"
"11:09:43.296","38","38","51.720","51.042","30.392","21.328"
"11:10:35.455","39","39","52.159","50.612","30.568",""
"11:11:48.360","40","40","1:12.905","36.210","","21.201"
"11:12:41.525","41","41","53.165","49.654","","21.647"
"11:13:32.990","42","42","51.465","51.295","30.272","21.193"
"11:14:26.139","43","43","53.149","49.669","31.065","22.084"
"11:15:17.586","44","44","51.447","51.313","30.374","21.073"
"11:16:11.449","45","45","53.863","49.011","31.493","22.370"
"11:17:03.097","46","46","51.648","51.113","30.374","21.274"
"11:17:55.971","47","47","52.874","49.928","31.300","21.574"
"11:18:47.451","48","48","51.480","51.280","30.415","21.065"
"11:19:38.925","49","49","51.474","51.286","30.403","21.071"
"11:20:37.486","50","50","58.561","45.079","30.790","27.771"
"11:21:30.023","51","51","52.537","50.248","31.178","21.359"
"11:22:22.307","52","52","52.284","50.491","30.798","21.486"
"11:23:15.623","53","53","53.316","49.514","31.630","21.686"
"11:24:07.353","54","54","51.730","51.032","30.470","21.260"
"11:25:00.286","55","55","52.933","49.872","30.783",""
"11:27:15.974","56","56","2:15.688","19.456","","21.892"
"11:28:08.003","57","57","52.029","50.739","","21.273"
"11:29:00.634","58","58","52.631","50.158","30.512","22.119"
"11:29:53.433","59","59","52.799","49.999","31.714","21.085"
"11:30:45.308","60","60","51.875","50.889","30.737","21.138"
"11:31:37.418","61","61","52.110","50.660","30.816","21.294"
"11:32:29.525","62","62","52.107","50.663","30.976","21.131"
"11:33:22.948","63","63","53.423","49.415","31.846","21.577"
"11:34:14.892","64","64","51.944","50.822","30.747","21.197"
"11:35:08.385","65","65","53.493","49.350","31.545","21.948"
"11:36:01.004","66","66","52.619","50.170","30.778","21.841"
1 - 喜多・寒川 - ショップ対抗
"10:36:57.497","2","2","54.235","48.675","32.275","21.960"
"10:37:49.935","3","3","52.438","50.343","30.938","21.500"
"10:38:41.913","4","4","51.978","50.788","30.774","21.204"
"10:39:33.912","5","5","51.999","50.768","30.756","21.243"
"10:40:26.288","6","6","52.376","50.402","30.962","21.414"
"10:41:19.151","7","7","52.863","49.938","31.182","21.681"
"10:42:11.121","8","8","51.970","50.796","30.822","21.148"
"10:43:03.494","9","9","52.373","50.405","31.199","21.174"
"10:43:55.274","10","10","51.780","50.983","30.599","21.181"
"10:44:47.253","11","11","51.979","50.787","30.644","21.335"
"10:45:39.813","12","12","52.560","50.226","31.273","21.287"
"10:46:31.671","13","13","51.858","50.906","30.695","21.163"
"10:47:24.114","14","14","52.443","50.338","30.874","21.569"
"10:48:15.885","15","15","51.771","50.991","30.549","21.222"
"10:49:09.297","16","16","53.412","49.425","32.078","21.334"
"10:50:01.311","17","17","52.014","50.753","30.877","21.137"
"10:50:57.901","18","18","56.590","46.649","30.952",""
"10:52:19.728","19","19","1:21.827","32.262","","22.510"
"10:53:15.374","20","20","55.646","47.441","","22.606"
"10:54:10.016","21","21","54.642","48.312","32.169","22.473"
"10:55:03.968","22","22","53.952","48.930","31.784","22.168"
"10:55:57.884","23","23","53.916","48.963","31.577","22.339"
"10:56:51.313","24","24","53.429","49.409","31.417","22.012"
"10:57:45.078","25","25","53.765","49.100","31.640","22.125"
"10:58:39.266","26","26","54.188","48.717","32.157","22.031"
"10:59:33.684","27","27","54.418","48.511","31.665","22.753"
"11:00:31.680","28","28","57.996","45.518","32.111",""
"11:01:51.451","29","29","1:19.771","33.093","","21.459"
"11:02:44.613","30","30","53.162","49.657","","21.443"
"11:03:37.968","31","31","53.355","49.478","30.842","22.513"
"11:04:31.240","32","32","53.272","49.555","30.672","22.600"
"11:05:23.284","33","33","52.044","50.724","30.536","21.508"
"11:06:15.380","34","34","52.096","50.673","30.789","21.307"
"11:07:26.322","35","35","1:10.942","37.212","30.586",""
"11:09:01.171","36","37","1:34.849","27.832","","22.391"
"11:09:54.845","37","38","53.674","49.184","","22.274"
"11:10:48.170","38","39","53.325","49.505","31.323","22.002"
"11:11:41.533","39","39","53.363","49.470","31.139","22.224"
"11:12:35.684","40","40","54.151","48.750","32.143","22.008"
"11:13:29.459","41","41","53.775","49.091","31.249","22.526"
"11:14:22.961","42","42","53.502","49.342","31.436","22.066"
"11:15:16.861","43","43","53.900","48.977","31.771","22.129"
"11:16:11.883","44","45","55.022","47.979","31.919","23.103"
"11:17:04.969","45","46","53.086","49.728","31.107","21.979"
"11:17:58.610","46","47","53.641","49.214","31.584","22.057"
"11:18:52.013","47","48","53.403","49.433","31.240","22.163"
"11:19:46.721","48","49","54.708","48.254","31.348","23.360"
"11:20:40.631","49","50","53.910","48.968","31.746","22.164"
"11:21:35.198","50","51","54.567","48.379","32.389","22.178"
"11:22:32.388","51","52","57.190","46.160","31.771",""
"11:23:53.380","52","53","1:20.992","32.594","","22.123"
"11:24:46.653","53","54","53.273","49.554","","21.998"
"11:25:40.088","54","55","53.435","49.404","31.935","21.500"
"11:26:33.389","55","55","53.301","49.528","30.938","22.363"
"11:27:25.713","56","56","52.324","50.453","30.963","21.361"
"11:28:17.949","57","57","52.236","50.538","30.891","21.345"
"11:29:10.972","58","58","53.023","49.787","30.891","22.132"
"11:30:03.648","59","59","52.676","50.115","30.615","22.061"
"11:30:55.435","60","60","51.787","50.976","30.708","21.079"
"11:31:47.632","61","61","52.197","50.575","31.098","21.099"
"11:32:39.817","62","62","52.185","50.587","30.935","21.250"
"11:33:31.481","63","63","51.664","51.097","30.465","21.199"
"11:34:23.564","64","64","52.083","50.686","30.450","21.633"
"11:35:15.023","65","65","51.459","51.301","30.425","21.034"
"11:36:06.625","66","66","51.602","51.158","30.303","21.299"
10 - 坂根・山田 - ショップ対抗
"10:37:10.712","2","2","55.482","47.581","33.199","22.283"
"10:38:04.826","3","3","54.114","48.784","32.046","22.068"
"10:38:59.098","4","4","54.272","48.642","32.050","22.222"
"10:39:52.734","5","5","53.636","49.218","31.699","21.937"
"10:40:46.244","6","6","53.510","49.334","31.729","21.781"
"10:41:41.337","7","7","55.093","47.917","32.969","22.124"
"10:42:35.255","8","8","53.918","48.961","31.937","21.981"
"10:43:29.211","9","9","53.956","48.927","31.489","22.467"
"10:44:22.833","10","10","53.622","49.231","31.661","21.961"
"10:45:17.154","11","11","54.321","48.598","31.986","22.335"
"10:46:11.408","12","12","54.254","48.658","32.008","22.246"
"10:47:05.331","13","13","53.923","48.956","31.969","21.954"
"10:48:00.078","14","14","54.747","48.220","32.460","22.287"
"10:48:55.286","15","15","55.208","47.817","32.756","22.452"
"10:49:49.475","16","16","54.189","48.716","32.079","22.110"
"10:50:43.395","17","17","53.920","48.959","31.960","21.960"
"10:51:38.670","18","18","55.275","47.759","32.405","22.870"
"10:52:33.434","19","19","54.764","48.205","32.366",""
"10:53:56.044","20","21","1:22.610","31.956","","22.647"
"10:54:50.972","21","21","54.928","48.061","","22.424"
"10:55:45.923","22","22","54.951","48.041","32.392","22.559"
"10:56:40.705","23","23","54.782","48.189","32.170","22.612"
"10:57:35.256","24","24","54.551","48.393","32.166","22.385"
"10:58:30.380","25","25","55.124","47.890","32.434","22.690"
"10:59:25.419","26","26","55.039","47.964","32.438","22.601"
"11:00:21.300","27","27","55.881","47.241","32.431","23.450"
"11:01:17.436","28","28","56.136","47.027","32.515",""
"11:02:38.020","29","30","1:20.584","32.759","","22.560"
"11:03:32.643","30","31","54.623","48.329","","22.600"
"11:04:28.009","31","31","55.366","47.681","32.800","22.566"
"11:05:22.835","32","32","54.826","48.150","32.152","22.674"
"11:06:17.190","33","34","54.355","48.567","32.304","22.051"
"11:07:12.116","34","35","54.926","48.062","32.005","22.921"
"11:08:07.004","35","36","54.888","48.096","32.353","22.535"
"11:09:01.561","36","37","54.557","48.388","32.329","22.228"
"11:09:55.219","37","38","53.658","49.198","31.628","22.030"
"11:10:48.607","38","39","53.388","49.447","31.452","21.936"
"11:11:41.777","39","39","53.170","49.650","31.220","21.950"
"11:12:36.227","40","40","54.450","48.483","32.303","22.147"
"11:13:29.691","41","41","53.464","49.377","31.425","22.039"
"11:14:23.605","42","42","53.914","48.965","31.997",""
"11:15:42.587","43","44","1:18.982","33.424","","23.040"
"11:16:37.923","44","45","55.336","47.706","","22.799"
"11:17:32.821","45","46","54.898","48.087","32.176","22.722"
"11:18:35.886","46","47","1:03.065","41.860","37.462","25.603"
"11:19:32.096","47","48","56.210","46.965","32.776",""
"11:20:51.936","48","50","1:19.840","33.065","","22.784"
"11:21:46.689","49","51","54.753","48.214","","22.488"
"11:22:41.192","50","52","54.503","48.435","31.895","22.608"
"11:23:36.116","51","53","54.924","48.064","32.094","22.830"
"11:24:30.518","52","54","54.402","48.525","32.043","22.359"
"11:25:24.845","53","55","54.327","48.592","32.060","22.267"
"11:26:19.107","54","55","54.262","48.651","32.059","22.203"
"11:27:13.787","55","56","54.680","48.279","32.306","22.374"
"11:28:07.915","56","57","54.128","48.771","32.006","22.122"
"11:29:01.605","57","58","53.690","49.169","31.623","22.067"
"11:29:58.240","58","59","56.635","46.612","34.122","22.513"
"11:30:52.443","59","60","54.203","48.704","31.817","22.386"
"11:31:47.046","60","61","54.603","48.347","32.548","22.055"
"11:32:40.931","61","62","53.885","48.991","31.876","22.009"
"11:33:35.083","62","63","54.152","48.749","31.954","22.198"
"11:34:29.111","63","64","54.028","48.861","31.858","22.170"
"11:35:23.474","64","65","54.363","48.560","32.047","22.316"
"11:36:18.612","65","66","55.138","47.878","32.356","22.782"
3 - 中西・鬼頭・坂本 - ショップ対抗
"10:36:58.533","2","2","54.704","48.258","32.489","22.215"
"10:37:52.501","3","3","53.968","48.916","31.874","22.094"
"10:38:46.725","4","4","54.224","48.685","31.827","22.397"
"10:39:40.398","5","5","53.673","49.185","31.599","22.074"
"10:40:34.970","6","6","54.572","48.374","32.490","22.082"
"10:41:29.854","7","7","54.884","48.099","32.571","22.313"
"10:42:24.037","8","8","54.183","48.722","32.005","22.178"
"10:43:18.587","9","9","54.550","48.394","32.238","22.312"
"10:44:12.482","10","10","53.895","48.982","31.781","22.114"
"10:45:34.185","11","11","1:21.703","32.311","31.687","50.016"
"10:46:30.625","12","12","56.440","46.773","33.504","22.936"
"10:47:28.022","13","14","57.397","45.993","32.552",""
"10:49:13.614","14","16","1:45.592","25.001","","23.195"
"10:50:08.926","15","17","55.312","47.727","","22.365"
"10:51:04.446","16","18","55.520","47.548","33.035","22.485"
"10:51:59.315","17","19","54.869","48.112","32.370","22.499"
"10:52:54.813","18","20","55.498","47.567","32.174","23.324"
"10:53:49.309","19","21","54.496","48.442","32.239","22.257"
"10:54:43.595","20","21","54.286","48.629","32.080","22.206"
"10:55:39.181","21","22","55.586","47.492","32.973","22.613"
"10:56:33.001","22","23","53.820","49.050","31.764","22.056"
"10:57:26.709","23","24","53.708","49.152","31.652","22.056"
"10:58:21.428","24","25","54.719","48.244","31.777","22.942"
"10:59:17.727","25","26","56.299","46.890","32.061",""
"11:00:49.910","26","28","1:32.183","28.637","","24.265"
"11:01:48.915","27","29","59.005","44.740","","23.900"
"11:02:49.133","28","30","1:00.218","43.839","35.916","24.302"
"11:03:47.756","29","31","58.623","45.031","34.609","24.014"
"11:04:47.471","30","32","59.715","44.208","34.554","25.161"
"11:05:46.828","31","33","59.357","44.475","35.230","24.127"
"11:06:46.302","32","34","59.474","44.387","34.946","24.528"
"11:07:44.599","33","35","58.297","45.283","34.191","24.106"
"11:08:43.074","34","36","58.475","45.145","34.309","24.166"
"11:09:43.122","35","37","1:00.048","43.963","33.945",""
"11:11:00.044","36","39","1:16.922","34.319","","22.826"
"11:11:54.726","37","40","54.682","48.277","","22.429"
"11:12:49.723","38","41","54.997","48.000","32.003","22.994"
"11:13:44.801","39","42","55.078","47.930","32.385","22.693"
"11:14:39.314","40","43","54.513","48.427","31.824","22.689"
"11:15:34.053","41","44","54.739","48.227","32.054","22.685"
"11:16:28.864","42","45","54.811","48.163","31.914","22.897"
"11:17:23.369","43","46","54.505","48.434","32.039","22.466"
"11:18:17.488","44","47","54.119","48.779","31.772","22.347"
"11:19:12.618","45","48","55.130","47.885","32.105","23.025"
"11:20:07.270","46","49","54.652","48.303","32.174","22.478"
"11:21:01.588","47","50","54.318","48.600","31.886","22.432"
"11:21:57.612","48","51","56.024","47.121","32.362",""
"11:23:19.146","49","53","1:21.534","32.378","","23.276"
"11:24:13.954","50","54","54.808","48.166","","22.500"
"11:25:08.784","51","55","54.830","48.147","32.490","22.340"
"11:26:03.243","52","55","54.459","48.475","32.128","22.331"
"11:26:57.697","53","56","54.454","48.479","32.120","22.334"
"11:27:52.916","54","57","55.219","47.807","32.875","22.344"
"11:28:48.918","55","58","56.002","47.139","33.080","22.922"
"11:29:43.379","56","59","54.461","48.473","32.198","22.263"
"11:30:37.848","57","60","54.469","48.466","32.126","22.343"
"11:31:32.059","58","61","54.211","48.696","32.065","22.146"
"11:32:26.366","59","62","54.307","48.610","31.886","22.421"
"11:33:21.308","60","63","54.942","48.048","32.625","22.317"
"11:34:15.745","61","64","54.437","48.494","31.985","22.452"
"11:35:09.954","62","65","54.209","48.698","31.864","22.345"
"11:36:03.965","63","66","54.011","48.877","31.879","22.132"
9 - 木村・上辻 - ショップ対抗
"10:37:03.560","2","2","55.553","47.520","32.709","22.844"
"10:37:59.629","3","3","56.069","47.083","33.050","23.019"
"10:38:55.574","4","4","55.945","47.187","33.084","22.861"
"10:39:50.955","5","5","55.381","47.668","32.746","22.635"
"10:40:46.032","6","6","55.077","47.931","32.504","22.573"
"10:41:41.487","7","7","55.455","47.604","32.852","22.603"
"10:42:36.479","8","8","54.992","48.005","32.520","22.472"
"10:43:31.352","9","9","54.873","48.109","32.480","22.393"
"10:44:26.130","10","10","54.778","48.192","32.265","22.513"
"10:45:22.028","11","11","55.898","47.227","32.497","23.401"
"10:46:17.285","12","12","55.257","47.775","32.741","22.516"
"10:47:12.937","13","13","55.652","47.435","32.829","22.823"
"10:48:08.084","14","14","55.147","47.870","32.342","22.805"
"10:49:03.266","15","15","55.182","47.840","32.667","22.515"
"10:49:58.240","16","16","54.974","48.021","32.492","22.482"
"10:50:56.853","17","17","58.613","45.039","32.724",""
"10:52:23.487","18","19","1:26.634","30.472","","25.073"
"10:53:23.658","19","20","1:00.171","43.873","","24.617"
"10:54:23.252","20","21","59.594","44.298","35.257","24.337"
"10:55:23.202","21","22","59.950","44.035","35.323","24.627"
"10:56:22.244","22","23","59.042","44.712","35.070","23.972"
"10:57:21.889","23","24","59.645","44.260","35.046","24.599"
"10:58:21.761","24","25","59.872","44.092","35.540","24.332"
"10:59:21.757","25","26","59.996","44.001","35.343","24.653"
"11:00:22.261","26","27","1:00.504","43.631","35.810","24.694"
"11:01:21.868","27","29","59.607","44.288","35.251","24.356"
"11:02:26.086","28","30","1:04.218","41.108","35.307",""
"11:03:57.806","29","31","1:31.720","28.782","","22.950"
"11:04:53.948","30","32","56.142","47.021","","23.704"
"11:05:49.555","31","33","55.607","47.474","32.678","22.929"
"11:06:45.469","32","34","55.914","47.213","33.035","22.879"
"11:07:40.666","33","35","55.197","47.827","32.418","22.779"
"11:08:35.582","34","36","54.916","48.071","32.293","22.623"
"11:09:30.625","35","37","55.043","47.960","32.498","22.545"
"11:10:25.943","36","38","55.318","47.722","32.434","22.884"
"11:11:21.634","37","39","55.691","47.402","32.710","22.981"
"11:12:16.937","38","40","55.303","47.735","32.614","22.689"
"11:13:12.240","39","41","55.303","47.735","32.354","22.949"
"11:14:07.170","40","42","54.930","48.059","32.397","22.533"
"11:15:03.766","41","43","56.596","46.644","33.528","23.068"
"11:16:01.269","42","44","57.503","45.909","32.525",""
"11:17:36.900","43","46","1:35.631","27.605","","25.087"
"11:18:37.708","44","47","1:00.808","43.413","","25.012"
"11:19:38.054","45","48","1:00.346","43.746","35.559","24.787"
"11:20:38.736","46","50","1:00.682","43.504","35.631","25.051"
"11:21:42.033","47","51","1:03.297","41.706","35.866",""
"11:23:07.962","48","52","1:25.929","30.722","","23.014"
"11:24:03.592","49","53","55.630","47.454","","23.156"
"11:24:58.809","50","54","55.217","47.809","32.558","22.659"
"11:25:53.774","51","55","54.965","48.028","32.427","22.538"
"11:26:48.665","52","56","54.891","48.093","32.507","22.384"
"11:27:43.800","53","57","55.135","47.880","32.357","22.778"
"11:28:38.814","54","58","55.014","47.986","32.518","22.496"
"11:29:33.600","55","59","54.786","48.185","32.381","22.405"
"11:30:28.293","56","60","54.693","48.267","32.237","22.456"
"11:31:23.237","57","61","54.944","48.047","32.400","22.544"
"11:32:17.931","58","62","54.694","48.266","32.183","22.511"
"11:33:12.565","59","63","54.634","48.319","32.126","22.508"
"11:34:07.622","60","64","55.057","47.948","32.390","22.667"
"11:35:02.456","61","65","54.834","48.143","32.239","22.595"
"11:35:58.978","62","66","56.522","46.705","33.573","22.949"
8 - 中野・谷口 - ショップ対抗
"10:37:05.845","2","2","56.367","46.834","33.474","22.893"
"10:38:02.991","3","3","57.146","46.195","33.874","23.272"
"10:38:59.540","4","4","56.549","46.683","33.555","22.994"
"10:39:56.099","5","5","56.559","46.675","33.394","23.165"
"10:40:53.181","6","6","57.082","46.247","33.759","23.323"
"10:41:50.833","7","7","57.652","45.790","33.933","23.719"
"10:42:48.431","8","8","57.598","45.833","34.185","23.413"
"10:43:45.681","9","9","57.250","46.111","33.758","23.492"
"10:44:51.529","10","11","1:05.848","40.091","33.916","31.932"